When you browse on this site, cookies collect data to enhance your experience and personalize the content and advertising you see.
Visit our Privacy Policy to learn more. By continuing to use the site, you agree to this use of cookies and data.
  • In United Kingdom
  • List of Countries
  • For 7 days
  • Water Temperature
  • Weather Map
  • Weather Widgets
  • user-avatar
    Login

    Hourly Weather Ilmoviki

    Today, 30 March, Monday

    Time Temperature Precipitation Wind Pressure Humidity
    00:00 -4°C° 0 mm 5 mps 749 mmHg 54%
    01:00 -5°C° 0 mm 5 mps 749 mmHg 53%
    02:00 -5°C° 0 mm 5 mps 750 mmHg 51%
    03:00 -5°C° 0 mm 5 mps 750 mmHg 50%
    04:00 -5°C° 0 mm 5 mps 750 mmHg 48%
    05:00 -5°C° 0 mm 5 mps 750 mmHg 47%
    06:00 -5°C° 0 mm 5 mps 750 mmHg 45%
    07:00 -4°C° 0 mm 5 mps 750 mmHg 43%
    08:00 -4°C° 0 mm 6 mps 750 mmHg 39%
    09:00 -3°C° 0 mm 6 mps 751 mmHg 34%
    10:00 -3°C° 0 mm 6 mps 751 mmHg 30%
    11:00 -1°C° 0 mm 5 mps 751 mmHg 25%
    12:00 -1°C° 0 mm 5 mps 751 mmHg 26%
    13:00 0°C° 0 mm 5 mps 751 mmHg 27%
    14:00 0°C° 0 mm 5 mps 751 mmHg 27%
    15:00 0°C° 0 mm 5 mps 751 mmHg 29%
    16:00 0°C° 0 mm 5 mps 751 mmHg 31%
    17:00 0°C° 0 mm 4 mps 751 mmHg 32%
    18:00 -1°C° 0 mm 4 mps 751 mmHg 37%
    19:00 -2°C° 0 mm 3 mps 751 mmHg 43%
    20:00 -3°C° 0 mm 2 mps 752 mmHg 48%
    21:00 -3°C° 0 mm 2 mps 752 mmHg 48%
    22:00 -3°C° 0 mm 2 mps 752 mmHg 49%
    23:00 -4°C° 0 mm 2 mps 753 mmHg 49%

    Tomorrow, 31 March, Tuesday

    Time Temperature Precipitation Wind Pressure Humidity
    00:00 -4°C° 0 mm 2 mps 753 mmHg 49%
    01:00 -4°C° 0 mm 2 mps 753 mmHg 49%
    02:00 -4°C° 0 mm 2 mps 754 mmHg 50%
    03:00 -4°C° 0 mm 2 mps 754 mmHg 51%
    04:00 -4°C° 0 mm 2 mps 754 mmHg 52%
    05:00 -6°C° 0 mm 3 mps 754 mmHg 53%
    06:00 -5°C° 0 mm 3 mps 754 mmHg 49%
    07:00 -4°C° 0 mm 3 mps 755 mmHg 45%
    08:00 -4°C° 0 mm 3 mps 755 mmHg 42%
    09:00 -2°C° 0 mm 3 mps 755 mmHg 36%
    10:00 -1°C° 0 mm 3 mps 755 mmHg 30%
    11:00 0°C° 0 mm 3 mps 755 mmHg 24%
    12:00 0°C° 0 mm 3 mps 754 mmHg 24%
    13:00 +1°C° 0 mm 3 mps 754 mmHg 23%
    14:00 +2°C° 0 mm 2 mps 754 mmHg 23%
    15:00 +2°C° 0 mm 2 mps 753 mmHg 24%
    16:00 +2°C° 0 mm 2 mps 753 mmHg 25%
    17:00 +2°C° 0 mm 2 mps 753 mmHg 26%
    18:00 -1°C° 0 mm 2 mps 752 mmHg 30%
    19:00 -2°C° 0 mm 2 mps 752 mmHg 35%
    20:00 -2°C° 0 mm 1 mps 752 mmHg 39%
    21:00 -3°C° 0 mm 2 mps 751 mmHg 43%
    22:00 -3°C° 0 mm 2 mps 751 mmHg 46%
    23:00 -4°C° 0 mm 3 mps 750 mmHg 50%

    Day after tomorrow, 1 April, Wednesday

    Time Temperature Precipitation Wind Pressure Humidity
    00:00 -4°C° 0 mm 3 mps 750 mmHg 53%
    01:00 -4°C° 0 mm 4 mps 749 mmHg 57%
    02:00 -3°C° 0 mm 4 mps 749 mmHg 60%
    03:00 -4°C° 0 mm 5 mps 748 mmHg 61%
    04:00 -4°C° 0 mm 5 mps 747 mmHg 62%
    05:00 -4°C° 0 mm 5 mps 746 mmHg 62%
    06:00 -4°C° 0 mm 6 mps 746 mmHg 64%
    07:00 -4°C° 0 mm 6 mps 745 mmHg 65%
    08:00 -3°C° 0 mm 6 mps 745 mmHg 67%
    09:00 -3°C° 0 mm 7 mps 744 mmHg 67%
    10:00 -2°C° 0 mm 7 mps 744 mmHg 67%
    11:00 -1°C° 0 mm 7 mps 743 mmHg 67%
    12:00 -1°C° 0.1 mm 7 mps 743 mmHg 74%
    13:00 -1°C° 0.1 mm 7 mps 743 mmHg 81%
    14:00 -1°C° 0.1 mm 7 mps 742 mmHg 87%
    15:00 -1°C° 0 mm 7 mps 742 mmHg 89%
    16:00 -1°C° 0 mm 6 mps 741 mmHg 90%
    17:00 -1°C° 0 mm 6 mps 741 mmHg 91%
    18:00 0°C° 0 mm 5 mps 741 mmHg 90%
    19:00 0°C° 0 mm 5 mps 741 mmHg 90%
    20:00 0°C° 0 mm 4 mps 741 mmHg 89%
    21:00 0°C° 0 mm 4 mps 741 mmHg 90%
    22:00 0°C° 0 mm 4 mps 741 mmHg 90%
    23:00 0°C° 0 mm 4 mps 741 mmHg 91%

    2 April, Thursday

    Time Temperature Precipitation Wind Pressure Humidity
    00:00 0°C° 0 mm 4 mps 741 mmHg 90%
    01:00 0°C° 0 mm 4 mps 741 mmHg 90%
    02:00 0°C° 0 mm 4 mps 740 mmHg 89%
    03:00 0°C° 0.2 mm 4 mps 740 mmHg 91%
    04:00 0°C° 0.2 mm 4 mps 739 mmHg 94%
    05:00 0°C° 0.2 mm 4 mps 739 mmHg 96%
    06:00 0°C° 0.5 mm 5 mps 738 mmHg 96%
    07:00 0°C° 0.5 mm 5 mps 738 mmHg 96%
    08:00 -1°C° 0.5 mm 6 mps 738 mmHg 96%
    09:00 -1°C° 0.3 mm 6 mps 738 mmHg 96%
    10:00 +1°C° 0.3 mm 6 mps 738 mmHg 95%
    11:00 +1°C° 0.3 mm 6 mps 738 mmHg 95%
    12:00 +2°C° 0.1 mm 6 mps 738 mmHg 91%
    13:00 +2°C° 0.1 mm 6 mps 738 mmHg 87%
    14:00 +3°C° 0.1 mm 6 mps 738 mmHg 82%
    15:00 +3°C° 0.1 mm 6 mps 738 mmHg 82%
    16:00 +3°C° 0.1 mm 6 mps 738 mmHg 82%
    17:00 +2°C° 0.1 mm 6 mps 738 mmHg 82%
    18:00 +2°C° 0.1 mm 6 mps 738 mmHg 84%
    19:00 +2°C° 0.1 mm 6 mps 738 mmHg 85%
    20:00 +1°C° 0.1 mm 6 mps 738 mmHg 87%
    21:00 +1°C° 0 mm 6 mps 738 mmHg 86%
    22:00 +1°C° 0 mm 6 mps 737 mmHg 85%
    23:00 +1°C° 0 mm 6 mps 737 mmHg 84%

    3 April, Friday

    Time Temperature Precipitation Wind Pressure Humidity
    00:00 +1°C° 0 mm 6 mps 737 mmHg 83%
    01:00 -1°C° 0 mm 6 mps 736 mmHg 82%
    02:00 -1°C° 0 mm 6 mps 736 mmHg 81%
    03:00 -1°C° 0 mm 7 mps 735 mmHg 82%
    04:00 -1°C° 0 mm 7 mps 734 mmHg 83%
    05:00 -1°C° 0 mm 8 mps 733 mmHg 85%
    06:00 0°C° 0 mm 9 mps 733 mmHg 82%
    07:00 0°C° 0 mm 9 mps 733 mmHg 80%
    08:00 +1°C° 0 mm 10 mps 732 mmHg 77%
    09:00 +1°C° 0.3 mm 9 mps 732 mmHg 80%
    10:00 +1°C° 0.3 mm 9 mps 732 mmHg 82%
    11:00 +1°C° 0.3 mm 9 mps 732 mmHg 85%
    12:00 +2°C° 0.2 mm 9 mps 733 mmHg 74%
    13:00 +3°C° 0.2 mm 9 mps 733 mmHg 64%
    14:00 +5°C° 0.2 mm 9 mps 734 mmHg 54%
    15:00 +5°C° 0.1 mm 8 mps 734 mmHg 53%
    16:00 +4°C° 0.1 mm 8 mps 735 mmHg 53%
    17:00 +4°C° 0.1 mm 7 mps 735 mmHg 52%
    18:00 +3°C° 0 mm 6 mps 736 mmHg 58%
    19:00 +2°C° 0 mm 5 mps 737 mmHg 64%
    20:00 0°C° 0 mm 4 mps 738 mmHg 69%
    21:00 -1°C° 0 mm 4 mps 739 mmHg 72%
    22:00 -1°C° 0 mm 4 mps 740 mmHg 75%
    23:00 -1°C° 0 mm 3 mps 741 mmHg 79%

    4 April, Saturday

    Time Temperature Precipitation Wind Pressure Humidity
    00:00 -1°C° 0 mm 3 mps 741 mmHg 79%
    01:00 -3°C° 0 mm 4 mps 742 mmHg 79%
    02:00 -3°C° 0 mm 4 mps 743 mmHg 80%
    03:00 -3°C° 0 mm 4 mps 744 mmHg 78%
    04:00 -3°C° 0 mm 4 mps 745 mmHg 77%
    05:00 -3°C° 0 mm 4 mps 746 mmHg 75%
    06:00 -2°C° 0 mm 4 mps 746 mmHg 69%
    07:00 -1°C° 0 mm 5 mps 747 mmHg 63%
    08:00 -1°C° 0 mm 6 mps 748 mmHg 57%
    09:00 +1°C° 0 mm 6 mps 748 mmHg 52%
    10:00 +2°C° 0 mm 6 mps 749 mmHg 46%
    11:00 +3°C° 0 mm 6 mps 749 mmHg 41%
    12:00 +4°C° 0 mm 6 mps 749 mmHg 40%
    13:00 +4°C° 0 mm 6 mps 750 mmHg 38%
    14:00 +4°C° 0 mm 6 mps 750 mmHg 37%
    15:00 +4°C° 0 mm 6 mps 751 mmHg 41%
    16:00 +3°C° 0 mm 5 mps 751 mmHg 45%
    17:00 +3°C° 0 mm 5 mps 752 mmHg 49%
    18:00 +1°C° 0 mm 5 mps 753 mmHg 53%
    19:00 0°C° 0 mm 4 mps 754 mmHg 56%
    20:00 -2°C° 0 mm 4 mps 755 mmHg 59%
    21:00 -2°C° 0 mm 4 mps 756 mmHg 61%
    22:00 -2°C° 0 mm 3 mps 757 mmHg 63%
    23:00 -2°C° 0 mm 3 mps 758 mmHg 66%
    Show more